Location: Arbon
(43.0005°N, 0.7472°E)
Time: 16:15:48
(UTC+00:00)

CZ-2D R/B - Pass Details

Date: 07 August 2020
Orbit: 792 x 845 km, 98.7° (Epoch: 23 September)

Event Time Altitude Azimuth Distance (km) Brightness Sun altitude
Rises 02:10:41 0° 8° (N) 3,408 6.4 -23.8°
Reaches altitude 10° 02:13:07 10° 3° (N) 2,473 5.4 -23.6°
Maximum altitude 02:18:23 49° 290° (WNW) 1,080 2.6 -23.0°
Enters shadow 02:19:23 44° 258° (WSW) 1,160 2.5 -22.9°
